カタログに戻る

THOR ABLESTAR DEB

運用中LEO
NORAD 177·DEBRIS·🇺🇸 United States

打ち上げ Jun 29, 1961 から Cape Canaveral Space Force Station

Loading…

次のパス (今後24時間)

TLE

最新Source: Space-Track

元期: Sep 7, 2026, 06:15 UTC

1 00177U 61015BB  26250.26046125  .00000232  00000-0  15467-3 0  9992
2 00177  66.6550 353.1455 0103400  30.8322 329.8785 14.14887432352775

AllMySatでTHOR ABLESTAR DEBをリアルタイム追跡

Download on the App Store